Flag for U.S.A. Weather past 2 weeks in Houston, Texas, U.S.A.

Now
59 °F

Light rain. Fog.


Feels Like: 58 °F
Forecast: 55 / 67 °F
Wind: 7 mph from Northeast

Location: Houston Hobby Airport

Current Time: Mar 1, 2015 at 7:22:14 AM

Latest Report: Mar 1, 2015 at 6:53 AM


Visibility: 1 mi

Pressure: 30.19 "Hg

Humidity: 96%

Dew point: 58 °F

Location of HoustonLocation

Historic Weather in Houston — Graph

°F

Houston temperature yesterday

Maximum temperature yesterday: 57 °F (at 9:53 PM)
Minimum temperature yesterday: 41 °F (at 2:53 AM)
Average temperature yesterday: 50 °F

Past Weeks' High & Low Weather Summary

 TemperatureHumidityPressure
High78 °F (Feb 22, 1:53 PM)100% (Feb 15, 1:53 AM)30.43 "Hg (Feb 15, 1:53 AM)
Low34 °F (Feb 24, 5:53 AM)28% (Feb 18, 3:53 PM)29.83 "Hg (Feb 25, 2:53 PM)
Average52 °F79%30.16 "Hg
* Reported Feb 14 5:53 AM — Mar 1 5:53 AM, Houston, Weather by CustomWeather, © 2015

Note: Actual official high and low records may vary slightly from our data, if they occured in-between our weather recording intervals... More about our weather records

Advertising

Houston weather history for previous 24 hours

 ConditionsComfort  
Time TempWeatherWind HumidityBarometerVisibility
5:53 AM
Sun, Mar 1
59 °FFog.9 mph96%30.18 "Hg1 mi
4:53 AM58 °FDrizzle. Fog.8 mph100%30.17 "Hg4 mi
3:53 AM57 °FFog.8 mph100%30.17 "Hg1 mi
2:53 AM57 °FDrizzle. Fog.7 mph100%30.18 "Hg1 mi
1:53 AM57 °FDrizzle. Fog.10 mph100%30.20 "Hg1 mi
12:53 AM57 °FDrizzle. Fog.7 mph96%30.21 "Hg2 mi
11:53 PM
Sat, Feb 28
57 °FLow clouds.9 mph93%30.22 "Hg7 mi
10:53 PM57 °FOvercast.9 mph90%30.23 "Hg10 mi
9:53 PM57 °FOvercast.12 mph83%30.24 "Hg10 mi
8:53 PM56 °FOvercast.8 mph84%30.24 "Hg10 mi
7:53 PM55 °FOvercast.8 mph83%30.22 "Hg10 mi
6:53 PM54 °FLight rain. Fog.10 mph86%30.22 "Hg5 mi
5:53 PM54 °FLight rain. Overcast.12 mph83%30.22 "Hg10 mi
4:53 PM56 °FOvercast.12 mph75%30.22 "Hg10 mi
3:53 PM56 °FOvercast.13 mph75%30.22 "Hg10 mi
2:53 PM56 °FOvercast.9 mph72%30.22 "Hg10 mi
1:53 PM54 °FOvercast.12 mph72%30.24 "Hg10 mi
12:53 PM54 °FMostly cloudy.12 mph67%30.28 "Hg10 mi
11:53 AM54 °FBroken clouds.12 mph64%30.31 "Hg10 mi
10:53 AM50 °FBroken clouds.16 mph66%30.32 "Hg10 mi
9:53 AM45 °FMostly cloudy.16 mph68%30.33 "Hg10 mi
8:53 AM43 °FMostly cloudy.13 mph71%30.33 "Hg10 mi
7:53 AM42 °FMostly cloudy.12 mph71%30.32 "Hg10 mi
Weather by CustomWeather, © 2015

See weather overviewHow to use our weather pages